• Join FlightAware (Why Join?)
  • Login
  • US Flag 
11:04PM EST


 

Airport Tracker/Info


-or-


 

Live Flight TrackerFlight Track Log ✈ SWA378 ✈ 17-May-2013 ✈ KSJC - KLAX

Flight Track Log - Related Links

Times and Time Zones

All times are in EDT time to prevent confusion due to time zone crossing. See the SWA378 flight status page for this flight to view local times or setup timezone preferences in your user account.

Time Position Orientation Groundspeed Altitude Reporting Facility
EDT Latitude Longitude Course Direction KTS MPH feet Rate Location/Type
11:44AM 37.3833 -121.9500 141° Southeast 154 177 1,700  Level Northern Cal TRACON
11:45AM 37.4333 -121.9833 332° Northwest 210 242 4,300 1,148 Climbing Northern Cal TRACON
11:48AM 37.3653 -121.8303 119° Southeast 234 269 5,700 1,229 Climbing Oakland Center
11:49AM 37.3092 -121.7650 137° Southeast 244 281 8,600 2,927 Climbing Oakland Center
11:50AM 36.9187 -121.4482 141° Southeast  Level Estimated
11:50AM 37.2456 -121.6947 139° Southeast 291 335 11,700  Level Oakland Center
11:51AM 37.1708 -121.6114 138° Southeast 348 400 15,100 3,220 Climbing Oakland Center
11:52AM 37.0928 -121.5239 138° Southeast 370 426 18,300 2,910 Climbing Oakland Center
11:54AM 36.9408 -121.3589 139° Southeast 393 452 23,200 2,683 Climbing Los Angeles Center
11:54AM 36.9133 -121.3272 137° Southeast 421 484 23,800 2,278 Climbing Oakland Center
11:55AM 36.8089 -121.2150 139° Southeast 447 514 26,200 2,195 Climbing Oakland Center
11:56AM 36.7097 -121.1081 139° Southeast 464 534 28,300 1,756 Climbing Oakland Center
11:57AM 36.6067 -120.9997 140° Southeast 480 552 29,800 1,610 Climbing Oakland Center
11:58AM 36.5006 -120.8817 138° Southeast 504 580 31,600 1,820 Climbing Oakland Center
11:59AM 36.3911 -120.7653 139° Southeast 516 594 33,500 1,659 Climbing Oakland Center
12:00PM 36.2828 -120.6486 139° Southeast 515 593 35,000 732 Climbing Oakland Center
12:01PM 36.1747 -120.5347 140° Southeast 511 588 35,000  Level Oakland Center
12:02PM 36.0667 -120.4153 138° Southeast 527 606 35,000  Level Oakland Center
12:03PM 35.9417 -120.2869 140° Southeast 487 560 35,000  Level Oakland Center
12:04PM 35.8336 -120.1750 140° Southeast 500 575 35,000  Level Oakland Center
12:05PM 35.7269 -120.0628 139° Southeast 501 577 35,000  Level Oakland Center
12:06PM 35.6197 -119.9531 140° Southeast 498 573 35,000  Level Oakland Center
12:07PM 35.5025 -119.8528 145° Southeast 507 583 35,000  Level Oakland Center
12:08PM 35.3856 -119.7531 145° Southeast 508 585 35,000  Level Oakland Center
12:09PM 35.2928 -119.6731 145° Southeast 508 585 35,000 -207 Level Los Angeles Center
12:10PM 35.1772 -119.5736 145° Southeast 505 581 34,600 -1,824 Descending Los Angeles Center
12:11PM 35.0389 -119.4564 145° Southeast 503 579 31,200 -2,928 Descending Los Angeles Center
12:12PM 34.9261 -119.3589 145° Southeast 497 572 28,500 -2,129 Descending Los Angeles Center
12:13PM 34.8175 -119.2700 146° Southeast 476 548 26,800 -2,081 Descending Los Angeles Center
12:15PM 34.7147 -119.1822 145° Southeast 457 526 24,200 -2,382 Descending Los Angeles Center
12:16PM 34.5986 -119.0847 145° Southeast 440 506 21,400 -2,321 Descending Los Angeles Center
12:17PM 34.4833 -118.9883 145° Southeast 417 480 18,900 -2,160 Descending Los Angeles Center
12:18PM 34.3950 -118.9128 145° Southeast 391 450 16,900 -1,984 Descending Los Angeles Center
12:19PM 34.3019 -118.8606 155° Southeast 368 423 14,800 -2,032 Descending Los Angeles Center
12:20PM 34.2069 -118.8261 163° South 358 412 12,700 -1,403 Descending Los Angeles Center
12:21PM 34.1153 -118.7922 163° South 348 400 11,900 -1,016 Descending Los Angeles Center
12:22PM 34.0344 -118.7119 141° Southeast 336 387 10,600 -1,210 Descending Los Angeles Center
12:23PM 34.0242 -118.6075 97° East 311 358 9,400 -1,306 Descending Los Angeles Center
12:24PM 34.0136 -118.4981 97° East 304 350 7,900 -1,355 Descending Los Angeles Center
12:25PM 34.0161 -118.4100 88° East 299 344 6,600 -1,248 Descending Los Angeles Center
12:26PM 34.0292 -118.3147 81° East 289 333 5,300 -912 Descending Los Angeles Center
12:27PM 34.0411 -118.2258 81° East 274 315 4,700 -1,016 Descending Los Angeles Center
12:28PM 34.0392 -118.1328 91° East 243 280 3,200 -1,429 Descending Los Angeles Center
12:29PM 34.0167 -118.1167 149° Southeast 246 283 2,700 -968 Descending Southern California TRACON
12:29PM 33.9864 -118.1378 210° Southwest 229 264 2,200 -353 Descending Los Angeles Center
12:30PM 33.9714 -118.2050 255° West 217 250 2,100 -48 Descending Los Angeles Center
12:31PM 33.9661 -118.2708 264° West 208 239 2,100 -339 Level Los Angeles Center
12:32PM 33.9606 -118.3225 263° West 177 204 1,400 -774 Descending Los Angeles Center
12:33PM 33.9561 -118.3756 264° West 147 169 500 -629 Descending Los Angeles Center
12:34PM 33.9511 -118.4139 261° West 141 162 100 -387 Descending Los Angeles Center